This is the latest recevied weather packets stored in our database for station/object KD6VEX-1. If no packets are shown the sender has not sent any weather packets the latest 10 day(s).
| Time | Temp. | Humidity | Pressure | Rain* | Wind** | Luminosity | Snow |
|---|---|---|---|---|---|---|---|
| 1778008906 | 20° C | 51% | 1014.7 hPa | 0 mm | - | - | - |
| 1778008542 | 20° C | 51% | 1014.6 hPa | 0 mm | - | - | - |
| 1778008242 | 20.56° C | 49% | 1014.6 hPa | 0 mm | - | - | - |
| 1778007942 | 20° C | 52% | 1014.7 hPa | 0 mm | - | - | - |
| 1778007342 | 20° C | 48% | 1014.7 hPa | 0 mm | - | - | - |
| 1778007042 | 20° C | 48% | 1014.7 hPa | 0 mm | - | - | - |
| 1778006742 | 20° C | 47% | 1014.7 hPa | 0 mm | - | - | - |
| 1778006442 | 20.56° C | 48% | 1014.6 hPa | 0 mm | - | - | - |
| 1778006142 | 20.56° C | 46% | 1014.6 hPa | 0 mm | - | - | - |
| 1778005842 | 20.56° C | 46% | 1014.7 hPa | 0 mm | - | - | - |
| 1778005542 | 20.56° C | 48% | 1014.9 hPa | 0 mm | - | - | - |
| 1778005242 | 20° C | 49% | 1014.9 hPa | 0 mm | - | - | - |
| 1778004943 | 20° C | 51% | 1014.9 hPa | 0 mm | - | - | - |
| 1778004642 | 19.44° C | 51% | 1014.9 hPa | 0 mm | - | - | - |
| 1778004343 | 19.44° C | 52% | 1015 hPa | 0 mm | - | - | - |
| 1778004042 | 19.44° C | 53% | 1015 hPa | 0 mm | - | - | - |
| 1778003742 | 18.89° C | 53% | 1015 hPa | 0 mm | - | - | - |
| 1778003442 | 18.89° C | 53% | 1015 hPa | 0 mm | - | - | - |
| 1778003142 | 18.89° C | 53% | 1015 hPa | 0 mm | - | - | - |
| 1778002843 | 18.33° C | 53% | 1015 hPa | 0 mm | - | - | - |
| 1778002542 | 18.33° C | 53% | 1015 hPa | 0 mm | - | - | - |
| 1778002242 | 18.33° C | 54% | 1015 hPa | 0 mm | - | - | - |
| 1778001942 | 18.33° C | 57% | 1015 hPa | 0 mm | - | - | - |
| 1778001642 | 17.78° C | 57% | 1015 hPa | 0 mm | - | - | - |
| 1778001043 | 17.78° C | 57% | 1015.1 hPa | 0 mm | - | - | - |
* Rain latest hour (hover to see other rain measurements)
** Current wind speed in m/s (hover to see current wind gust speed)